NOAA 16 DEB, 41086

Orbit data source: Space-Track

NOAA 16 DEB, 41086 is space debris in SSO originally from a launch on Thu, 21 Sep 2000 UTC launched from the Air Force Western Test Range (AFWTR). Debris objects in space refer to the collection of defunct objects orbiting the Earth. Examples of debris include non-operational satellites, rocket bodies, and fragments generated from explosions, collisions, or faulty payload assembly.

Loading next visibility...
Identifier
41086, 2000-055AV
Orbit
SSO
Country
Flag of USUS
Related business
Manufacturer
Unknown
Mission
Spacecraft
Bus & Motor
Unknown
Mass
Unknown
Launch date (UTC)
2000-09-21 (25 years ago)
Launch vehicle
Unknown
Launch site
Air Force Western Test Range (AFWTR)
Object type
Payload
Rocket body
Debris
Shape & HBR
Unknown shape, 0.1 m
Radar Cross Section
Small (<0.1 m²)

Expand to show TLE details & history
Last TLE update: 3 days ago

TLE from 3 days ago
0 NOAA 16 DEB
1 41086U 00055AV  25286.87543681  .00018456  00000-0  37593-2 0  9997
2 41086  98.8106  79.5648 0028958  13.4679 346.7286 14.60789497515657
Epoch: 2025-10-13T21:00Z
TLE epoch observation values (Epoch: 2025-10-13T21:00:37.740Z)
Latitude
-0.00002°
Longitude
101.73561°
Altitude
673.669 km
Speed
7.531 km/s
True Right ascension
05h 18m 15s
True Declination
0° 00' 00"
Sunlit
Object was in full shadow at epoch
Visualization orbit readout
Latitude
Unknown
Longitude
Unknown
Altitude
Unknown
Speed
Unknown
Apparent Right ascension
Unknown
Apparent Declination
Unknown
Sunlit
N/A
Visualization observer readout
Local Sidereal Time
13:21:33
Azimuth
Unknown
Elevation
Unknown
Doppler factor
Unknown
Orbital elements
Apogee altitude
708.196 km
Perigee altitude
667.274 km
Semi-major axis
7,065.872 km
Eccentricity
0.0029
Inclination
98.8106°
RAAN
79.5648°
Arg. of periapsis
13.4679°
True anomaly
346.65215°
Mean anomaly
346.7286°
Eccentric anomaly
346.6904°
Mean motion
3.65422 °/min
Orbital period
98.52 mins
BSTAR
0.0037593
Loading maneuver chart data...
Computing Atmospheric mass density...

Documentation

Showing up to 5 results
|